Regional Weather Roundup
Issued by NWS State College, PA

Home | Current Version | Previous Version | Text Only | Print | Product List | Glossary On
Versions: 1 2 3 4 5 6 7 8 9 10 11 12 13 14 15 16 17 18 19 20 21 22 23 24 25 26 27 28 29 30 31 32 33 34 35 36 37 38 39 40 41 42 43 44 45 46 47 48 49 50
000
ASUS41 KCTP 221510
RWRCTP
REGIONAL WEATHER ROUNDUP
NATIONAL WEATHER SERVICE STATE COLLEGE PA
1100 AM EDT FRI SEP 22 2017

Note: "fair" indicates few or no clouds below 12,000 feet with no
significant weather and/or obstructions to visibility.

* = STATION THAT DOES NOT REPORT PRECIPITATION /E.G. RAIN...SNOW...ETC/
    THUNDER OR FOG.

PAZ002>004-007>009-013>016-020>023-029>032-221600-
WESTERN PENNSYLVANIA

CITY           SKY/WX    TMP DP  RH WIND       PRES   REMARKS
ERIE           CLOUDY    75  63  66 CALM      30.16R
MEADVILLE      CLOUDY    78  63  59 W5        30.18R
FRANKLIN*      CLOUDY    68  63  83 E3        30.18F
NEW CASTLE     FAIR      72  65  78 CALM      30.17S
BEAVER COUNTY  SUNNY     73  63  68 S3        30.17R
BUTLER*        CLOUDY    69  64  84 CALM      30.17S
PITTSBURGH INT CLOUDY    69  62  78 CALM      30.16S
PITTSBURGH     MOSUNNY   73  62  68 CALM      30.15S
INDIANA*       SUNNY     73  64  73 CALM      30.19S
LATROBE        PTSUNNY   73  64  73 CALM      30.16F
WASHINGTON CO* CLOUDY    70  64  83 CALM      30.16S
$$

PAZ004>006-010>012-017>019-024>028-033>037-041-042-045-046-049>053-221600-
CENTRAL PENNSYLVANIA

CITY           SKY/WX    TMP DP  RH WIND       PRES   REMARKS
BRADFORD       PTSUNNY   74  57  55 NW8       30.20R
DUBOIS         SUNNY     70  56  61 N5        30.17S
CLEARFIELD     SUNNY     71  61  70 CALM      30.17S
JOHNSTOWN      SUNNY     73  60  63 VRB3      30.18S
ALTOONA        SUNNY     73  63  70 CALM      30.15F
STATE COLLEGE  SUNNY     72  64  78 CALM      30.14F
WILLIAMSPORT   SUNNY     76  63  64 W7        30.10F
SELINSGROVE    SUNNY     76  64  66 VRB5      30.10F
FT INDIANTOWN  PTSUNNY   76  63  63 CALM      30.09S
CAPITAL CITY   SUNNY     77  62  59 NW8       30.09F
HARRISBURG     MOSUNNY   76  64  66 N9        30.08S
YORK           CLOUDY    72  67  84 N3        30.10S
$$

PAZ038>040-043-044-047-048-054-055-060>062-067>071-221600-
EASTERN PENNSYLVANIA

CITY           SKY/WX    TMP DP  RH WIND       PRES   REMARKS
SCRANTON       MOSUNNY   70  59  68 NE3       30.12S
MOUNT POCONO   SUNNY     71  47  42 N8        30.12S
ALLENTOWN      MOSUNNY   73  59  61 SW5       30.07F
QUAKERTOWN*    CLOUDY    72  61  68 NW3       30.08F
READING        PTSUNNY   75  65  70 N8        30.06F
LANCASTER      MOSUNNY   73  66  78 NW6       30.08F
COATESVILLE    PTSUNNY   73  63  68 CALM      30.09S
POTTSTOWN      CLOUDY    72  61  68 N8        30.08F
BLUE BELL      CLOUDY    70  61  73 NW3       30.07S
DOYLESTOWN     CLOUDY    76  57  51 N9        30.04F
WILLOW GROVE   NOT AVBL
NORTH PHILA    PTSUNNY   74  59  59 NW9       30.06S
PHILADELPHIA   CLOUDY    73  58  59 NW9       30.05S
$$




USA.gov is the U.S. government's official web portal to all federal, state and local government web resources and services.